Weather History for Blakely, GA

Change the Weather History Date:

Saturday, February 9, 2013

  Actual Average (KDHN) Record (KDHN)
Temperature  
Mean Temperature 50 °F 52 °F  
Max Temperature 68 °F 64 °F 82 °F (1957)
Min Temperature 33 °F 40 °F 24 °F (1947)
Degree Days  
Heating Degree Days 14 13  
Month to date heating degree days 128  
Since 1 July heating degree days 1344  
Moisture  
Dew Point 42 °F    
Average Humidity 75    
Maximum Humidity 100    
Minimum Humidity 37    
Precipitation  
Precipitation 0.00 in 0.17 in 4.26 in (1937)
Month to date precipitation 1.33  
Year to date precipitation 5.96  
Sea Level Pressure  
Sea Level Pressure 30.23 in    
Wind  
Wind Speed 3 mph (NE)    
Max Wind Speed 9 mph    
Max Gust Speed -    
Visibility 10 miles    
Events      
T = Trace of Precipitation, MM = Missing Value Source: NWS Daily Summary

Daily Weather History Graph

Daily Weather History Graph

Search for Another Location

Airport:

Trip Planner

Search our weather history database for the weather conditions in past years. The results will help you decide how hot, cold, wet, or windy it might be!

Date:

Astronomy

Feb. 09, 2013 Rise Set
Actual Time 7:26 AM EST 6:21 PM EST
Civil Twilight 7:01 AM EST 6:46 PM EST
Nautical Twilight 6:32 AM EST 7:15 PM EST
Astronomical Twilight 6:03 AM EST 7:44 PM EST
Moon 6:37 AM EST (2/9) 6:01 PM EST (2/9)
Length of Visible Light 11h 45m
Length of Day
10h 55m
Waning Crescent, 0% of the Moon is Illuminated
Feb 9
Waning Crescent
Feb 10
New
Feb 17
First Quarter
Feb 25
Full
Mar 4
Last Quarter

Hourly Weather History & Observations

Time (EST) Temp. Windchill Dew Point Humidity Pressure Visibility Wind Dir Wind Speed Gust Speed Precip Events Conditions
12:15 AM 53.6 °F - 50.0 °F 88% 30.17 in 10.0 mi NNW 3.5 mph - N/A   Clear
12:35 AM 53.6 °F - 50.0 °F 88% 30.17 in 10.0 mi North 4.6 mph - N/A   Clear
12:55 AM 51.8 °F - 50.0 °F 94% 30.17 in 10.0 mi NNW 5.8 mph - N/A   Clear
1:15 AM 51.8 °F - 48.2 °F 88% 30.17 in 10.0 mi North 4.6 mph - N/A   Clear
1:35 AM 51.8 °F - 48.2 °F 88% 30.17 in 10.0 mi North 4.6 mph - N/A   Clear
1:55 AM 50.0 °F - 46.4 °F 87% 30.18 in 10.0 mi NNW 4.6 mph - N/A   Clear
2:15 AM 50.0 °F - 46.4 °F 87% 30.18 in 10.0 mi NNW 5.8 mph - N/A   Clear
2:35 AM 48.2 °F - 46.4 °F 93% 30.18 in 10.0 mi North 5.8 mph - N/A   Clear
2:55 AM 46.4 °F 42.9 °F 44.6 °F 93% 30.19 in 10.0 mi North 6.9 mph - N/A   Clear
3:15 AM 46.4 °F 43.5 °F 44.6 °F 93% 30.19 in 10.0 mi North 5.8 mph - N/A   Clear
3:35 AM 44.6 °F 42.2 °F 42.8 °F 93% 30.20 in 10.0 mi North 4.6 mph - N/A   Clear
3:55 AM 44.6 °F 41.4 °F 42.8 °F 93% 30.20 in 10.0 mi North 5.8 mph - N/A   Clear
4:15 AM 44.6 °F - 42.8 °F 93% 30.20 in 10.0 mi Calm Calm - N/A   Clear
4:35 AM 42.8 °F - 41.0 °F 93% 30.21 in 10.0 mi Calm Calm - N/A   Clear
4:55 AM 42.8 °F 41.1 °F 41.0 °F 93% 30.21 in 10.0 mi North 3.5 mph - N/A   Clear
5:15 AM 41.0 °F 39.0 °F 39.2 °F 93% 30.21 in 10.0 mi NNE 3.5 mph - N/A   Clear
5:35 AM 41.0 °F 39.0 °F 39.2 °F 93% 30.21 in 10.0 mi NNE 3.5 mph - N/A   Clear
5:55 AM 39.2 °F - 39.2 °F 100% 30.22 in 10.0 mi Calm Calm - N/A   Clear
6:15 AM 37.4 °F - 37.4 °F 100% 30.23 in 10.0 mi Calm Calm - N/A   Clear
6:35 AM 37.4 °F - 37.4 °F 100% 30.24 in 7.0 mi Calm Calm - N/A   Clear
6:55 AM 35.6 °F - 35.6 °F 100% 30.25 in 5.0 mi Calm Calm - N/A   Clear
7:15 AM 35.6 °F - 35.6 °F 100% 30.26 in 4.0 mi Calm Calm - N/A   Clear
7:35 AM 35.6 °F - 35.6 °F 100% 30.26 in 1.8 mi Calm Calm - N/A   Mist
7:55 AM 33.8 °F - 33.8 °F 100% 30.27 in 4.0 mi Calm Calm - N/A   Clear
8:15 AM 35.6 °F - 35.6 °F 100% 30.28 in 7.0 mi Calm Calm - N/A   Clear
8:35 AM 37.4 °F 34.9 °F 37.4 °F 100% 30.29 in 10.0 mi NNE 3.5 mph - N/A   Clear
8:55 AM 41.0 °F 38.0 °F 39.2 °F 93% 30.29 in 10.0 mi NNE 4.6 mph - N/A   Clear
9:15 AM 42.8 °F 39.3 °F 39.2 °F 87% 30.30 in 10.0 mi ENE 5.8 mph - N/A   Clear
9:35 AM 44.6 °F 40.7 °F 39.2 °F 81% 30.29 in 10.0 mi ENE 6.9 mph - N/A   Clear
9:55 AM 46.4 °F 42.4 °F 39.2 °F 76% 30.29 in 10.0 mi ENE 8.1 mph - N/A   Clear
10:15 AM 48.2 °F - 39.2 °F 71% 30.29 in 10.0 mi ENE 6.9 mph - N/A   Clear
10:35 AM 50.0 °F - 41.0 °F 71% 30.29 in 10.0 mi ENE 5.8 mph - N/A   Clear
10:55 AM 51.8 °F - 41.0 °F 67% 30.29 in 10.0 mi East 4.6 mph - N/A   Clear
11:15 AM 53.6 °F - 41.0 °F 62% 30.29 in 10.0 mi Calm Calm - N/A   Clear
11:35 AM 55.4 °F - 41.0 °F 58% 30.28 in 10.0 mi ENE 8.1 mph - N/A   Clear
11:55 AM 57.2 °F - 41.0 °F 55% 30.28 in 10.0 mi Calm Calm - N/A   Clear
12:15 PM 59.0 °F - 41.0 °F 51% 30.27 in 10.0 mi SE 5.8 mph - N/A   Clear
12:35 PM 60.8 °F - 41.0 °F 48% 30.27 in 10.0 mi Calm Calm - N/A   Clear
12:55 PM 60.8 °F - 41.0 °F 48% 30.26 in 10.0 mi SE 4.6 mph - N/A   Clear
1:15 PM 62.6 °F - 41.0 °F 45% 30.25 in 10.0 mi ESE 5.8 mph - N/A   Clear
1:35 PM 62.6 °F - 41.0 °F 45% 30.23 in 10.0 mi Calm Calm - N/A   Clear
1:55 PM 64.4 °F - 41.0 °F 42% 30.22 in 10.0 mi Calm Calm - N/A   Clear
2:15 PM 64.4 °F - 41.0 °F 42% 30.22 in 10.0 mi Calm Calm - N/A   Clear
2:35 PM 64.4 °F - 41.0 °F 42% 30.22 in 10.0 mi ENE 5.8 mph - N/A   Clear
2:55 PM 64.4 °F - 39.2 °F 40% 30.21 in 10.0 mi East 6.9 mph - N/A   Clear
3:15 PM 66.2 °F - 41.0 °F 40% 30.21 in 10.0 mi East 9.2 mph - N/A   Clear
3:35 PM 66.2 °F - 41.0 °F 40% 30.20 in 10.0 mi Calm Calm - N/A   Clear
3:55 PM 68.0 °F - 41.0 °F 37% 30.19 in 10.0 mi East 6.9 mph - N/A   Clear
4:15 PM 66.2 °F - 41.0 °F 40% 30.19 in 10.0 mi ESE 3.5 mph - N/A   Clear
4:35 PM 68.0 °F - 41.0 °F 37% 30.19 in 10.0 mi East 3.5 mph - N/A   Clear
4:55 PM 66.2 °F - 41.0 °F 40% 30.20 in 10.0 mi East 5.8 mph - N/A   Clear
5:15 PM 66.2 °F - 41.0 °F 40% 30.21 in 10.0 mi Calm Calm - N/A   Clear
5:35 PM 64.4 °F - 41.0 °F 42% 30.22 in 10.0 mi Calm Calm - N/A   Clear
5:55 PM 64.4 °F - 41.0 °F 42% 30.22 in 10.0 mi Calm Calm - N/A   Clear
6:15 PM 62.6 °F - 42.8 °F 48% 30.21 in 10.0 mi Calm Calm - N/A   Clear
6:35 PM 59.0 °F - 44.6 °F 59% 30.21 in 10.0 mi Calm Calm - N/A   Clear
6:55 PM 55.4 °F - 46.4 °F 72% 30.22 in 10.0 mi Calm Calm - N/A   Clear
7:15 PM 53.6 °F - 46.4 °F 77% 30.21 in 10.0 mi Calm Calm - N/A   Clear
7:35 PM 51.8 °F - 46.4 °F 82% 30.22 in 10.0 mi Calm Calm - N/A   Clear
7:55 PM 50.0 °F - 46.4 °F 87% 30.21 in 10.0 mi Calm Calm - N/A   Clear
8:35 PM 48.2 °F - 44.6 °F 87% 30.22 in 10.0 mi Calm Calm - N/A   Clear
8:55 PM 50.0 °F - 44.6 °F 82% 30.22 in 10.0 mi Calm Calm - N/A   Clear
9:15 PM 48.2 °F - 44.6 °F 87% 30.22 in 10.0 mi Calm Calm - N/A   Clear
9:35 PM 48.2 °F - 44.6 °F 87% 30.22 in 10.0 mi Calm Calm - N/A   Clear
9:55 PM 48.2 °F - 44.6 °F 87% 30.22 in 10.0 mi Calm Calm - N/A   Clear
10:15 PM 46.4 °F - 44.6 °F 93% 30.22 in 10.0 mi Calm Calm - N/A   Clear
10:35 PM 46.4 °F - 44.6 °F 93% 30.22 in 10.0 mi Calm Calm - N/A   Clear
10:55 PM 46.4 °F - 44.6 °F 93% 30.22 in 10.0 mi Calm Calm - N/A   Clear
11:15 PM 46.4 °F - 42.8 °F 87% 30.22 in 10.0 mi Calm Calm - N/A   Clear
11:35 PM 44.6 °F - 42.8 °F 93% 30.23 in 10.0 mi Calm Calm - N/A   Clear
11:55 PM 46.4 °F - 42.8 °F 87% 30.23 in 10.0 mi Calm Calm - N/A   Clear